| time (UTC) | temp C | wind direction | speed KPH | gust KPH | rain 1hr cm | rain 24hr cm | rain mn cm | humidity % | barometer mb |
| 20260502122840 | 35 | 163 | 1.6 | 6.4 | 0.00 | 0.00 | 0.00 | 12 | 1018.1 |
| 20260502112634 | 33 | 135 | 8.0 | 8.0 | 0.00 | 0.00 | 0.00 | 14 | 1019.0 |
| 20260502112241 | 33 | 144 | 3.2 | 8.0 | 0.00 | 0.00 | 0.00 | 14 | 1019.0 |
| 20260502102035 | 30 | 143 | 6.4 | 11.3 | 0.00 | 0.00 | 0.00 | 19 | 1019.7 |
| 20260502101642 | 30 | 180 | 0.0 | 4.8 | 0.00 | 0.00 | 0.00 | 20 | 1019.8 |
| 20260502091435 | 27 | 337 | 4.8 | 8.0 | 0.00 | 0.00 | 0.00 | 27 | 1020.5 |
| 20260502070237 | 18 | 315 | 0.0 | 0.0 | 0.00 | 0.00 | 0.00 | 55 | 1022.0 |
| 20260502055638 | 8 | 180 | 0.0 | 0.0 | 0.00 | 0.00 | 0.00 | 94 | 1022.4 |
| 20260502045431 | 6 | 187 | 0.0 | 3.2 | 0.00 | 0.00 | 0.00 | 100 | 1022.3 |
| 20260502045039 | 6 | 180 | 1.6 | 3.2 | 0.00 | 0.00 | 0.00 | 100 | 1022.3 |
| 20260502034832 | 5 | 246 | 1.6 | 3.2 | 0.00 | 0.00 | 0.00 | 97 | 1022.1 |
| 20260502034439 | 5 | 180 | 1.6 | 3.2 | 0.00 | 0.00 | 0.00 | 96 | 1022.2 |
| 20260502024233 | 6 | 180 | 0.0 | 3.2 | 0.00 | 0.00 | 0.00 | 89 | 1022.3 |
| 20260502013727 | 6 | 337 | 1.6 | 3.2 | 0.00 | 0.00 | 0.00 | 85 | 1022.4 |
| 20260502013634 | 6 | 337 | 1.6 | 3.2 | 0.00 | 0.00 | 0.00 | 85 | 1022.4 |
| 20260502003034 | 7 | 337 | 0.0 | 1.6 | 0.00 | 0.00 | 0.00 | 78 | 1022.7 |
| 20260501232435 | 8 | 162 | 0.0 | 0.0 | 0.00 | 0.00 | 0.00 | 72 | 1022.9 |
| 20260501222229 | 10 | 181 | 3.2 | 3.2 | 0.00 | 0.00 | 0.00 | 66 | 1022.9 |
| 20260501221837 | 10 | 181 | 0.0 | 0.0 | 0.00 | 0.00 | 0.00 | 66 | 1022.8 |
| 20260501211630 | 11 | 337 | 0.0 | 3.2 | 0.00 | 0.00 | 0.00 | 58 | 1022.7 |
| 20260501211237 | 11 | 270 | 1.6 | 3.2 | 0.00 | 0.00 | 0.00 | 58 | 1022.8 |
| 20260501201031 | 13 | 180 | 0.0 | 3.2 | 0.00 | 0.00 | 0.00 | 49 | 1022.8 |
| 20260501190432 | 16 | 9 | 0.0 | 0.0 | 0.00 | 0.00 | 0.00 | 39 | 1022.4 |
| 20260501175832 | 21 | 180 | 0.0 | 3.2 | 0.00 | 0.00 | 0.00 | 30 | 1021.9 |
| 20260501165233 | 23 | 337 | 3.2 | 9.7 | 0.00 | 0.00 | 0.00 | 27 | 1021.8 |